| time (UTC) | temp C | wind direction | speed KPH | gust KPH | rain 1hr cm | rain 24hr cm | rain mn cm | humidity % | barometer mb |
| 20260507172437 | 17 | 111 | 0.0 | 0.0 | 0.00 | 0.00 | 0.00 | 79 | 324.4 |
| 20260507171931 | 17 | 98 | 1.6 | 0.0 | 0.00 | 0.00 | 0.00 | 77 | 324.3 |
| 20260507171425 | 17 | 80 | 1.6 | 0.0 | 0.00 | 0.00 | 0.00 | 76 | 324.2 |
| 20260507170919 | 18 | 83 | 0.0 | 0.0 | 0.00 | 0.00 | 0.00 | 76 | 324.1 |
| 20260507170413 | 18 | 79 | 0.0 | 0.0 | 0.00 | 0.00 | 0.00 | 74 | 324.0 |
| 20260507165907 | 18 | 79 | 0.0 | 0.0 | 0.00 | 0.00 | 0.00 | 74 | 324.0 |
| 20260507165401 | 18 | 89 | 0.0 | 0.0 | 0.00 | 0.00 | 0.00 | 74 | 323.9 |
| 20260507164855 | 18 | 82 | 0.0 | 0.0 | 0.00 | 0.00 | 0.00 | 74 | 323.9 |
| 20260507164349 | 18 | 81 | 0.0 | 0.0 | 0.00 | 0.00 | 0.00 | 73 | 323.9 |
| 20260507163843 | 18 | 91 | 0.0 | 0.0 | 0.00 | 0.00 | 0.00 | 73 | 323.8 |
| 20260507163337 | 18 | 100 | 0.0 | 0.0 | 0.00 | 0.00 | 0.00 | 74 | 323.8 |
| 20260507162831 | 18 | 112 | 0.0 | 0.0 | 0.00 | 0.00 | 0.00 | 74 | 323.8 |
| 20260507162325 | 18 | 112 | 0.0 | 0.0 | 0.00 | 0.00 | 0.00 | 73 | 323.7 |
| 20260507161819 | 18 | 124 | 0.0 | 0.0 | 0.00 | 0.00 | 0.00 | 73 | 323.7 |
| 20260507161313 | 18 | 148 | 0.0 | 0.0 | 0.00 | 0.00 | 0.00 | 73 | 323.7 |
| 20260507160807 | 18 | 160 | 0.0 | 0.0 | 0.00 | 0.00 | 0.00 | 73 | 323.7 |
| 20260507160301 | 18 | 174 | 0.0 | 0.0 | 0.00 | 0.00 | 0.00 | 73 | 323.7 |
| 20260507155755 | 18 | 194 | 0.0 | 0.0 | 0.00 | 0.00 | 0.00 | 73 | 323.7 |
| 20260507155249 | 18 | 187 | 1.6 | 0.0 | 0.00 | 0.00 | 0.00 | 72 | 323.7 |
| 20260507154743 | 18 | 163 | 0.0 | 0.0 | 0.00 | 0.00 | 0.00 | 70 | 323.7 |
| 20260507154237 | 19 | 171 | 3.2 | 0.0 | 0.00 | 0.00 | 0.00 | 69 | 323.7 |
| 20260507153731 | 19 | 177 | 0.0 | 0.0 | 0.00 | 0.00 | 0.00 | 69 | 323.7 |
| 20260507153225 | 19 | 153 | 0.0 | 0.0 | 0.00 | 0.00 | 0.00 | 68 | 323.7 |
| 20260507152719 | 20 | 128 | 0.0 | 0.0 | 0.00 | 0.00 | 0.00 | 68 | 323.7 |
| 20260507152213 | 20 | 116 | 0.0 | 0.0 | 0.00 | 0.00 | 0.00 | 66 | 323.6 |
| 20260507151707 | 20 | 117 | 1.6 | 0.0 | 0.00 | 0.00 | 0.00 | 66 | 323.6 |
| 20260507151201 | 20 | 118 | 0.0 | 0.0 | 0.00 | 0.00 | 0.00 | 66 | 323.5 |
| 20260507150655 | 21 | 123 | 1.6 | 0.0 | 0.00 | 0.00 | 0.00 | 66 | 323.5 |
| 20260507150149 | 21 | 135 | 0.0 | 0.0 | 0.00 | 0.00 | 0.00 | 65 | 323.4 |
| 20260507145643 | 21 | 140 | 1.6 | 0.0 | 0.00 | 0.00 | 0.00 | 64 | 323.3 |
| 20260507145137 | 21 | 174 | 1.6 | 0.0 | 0.00 | 0.00 | 0.00 | 64 | 323.3 |
| 20260507144631 | 21 | 219 | 0.0 | 0.0 | 0.00 | 0.00 | 0.00 | 63 | 323.3 |
| 20260507144125 | 21 | 228 | 1.6 | 0.0 | 0.00 | 0.00 | 0.00 | 62 | 323.3 |
| 20260507143619 | 22 | 244 | 0.0 | 0.0 | 0.00 | 0.00 | 0.00 | 62 | 323.2 |
| 20260507143113 | 22 | 277 | 0.0 | 0.0 | 0.00 | 0.00 | 0.00 | 60 | 323.1 |
| 20260507142607 | 22 | 276 | 0.0 | 0.0 | 0.00 | 0.00 | 0.00 | 61 | 323.0 |
| 20260507142101 | 22 | 278 | 1.6 | 0.0 | 0.00 | 0.00 | 0.00 | 60 | 322.9 |
| 20260507141555 | 22 | 283 | 0.0 | 0.0 | 0.00 | 0.00 | 0.00 | 60 | 322.8 |
| 20260507141049 | 22 | 285 | 0.0 | 0.0 | 0.00 | 0.00 | 0.00 | 60 | 322.8 |
| 20260507140543 | 22 | 303 | 0.0 | 0.0 | 0.00 | 0.00 | 0.00 | 61 | 322.8 |
| 20260507140037 | 22 | 103 | 0.0 | 0.0 | 0.00 | 0.00 | 0.00 | 63 | 322.8 |
| 20260507135531 | 21 | 308 | 0.0 | 0.0 | 0.00 | 0.00 | 0.00 | 67 | 322.9 |
| 20260507135025 | 21 | 49 | 0.0 | 0.0 | 0.00 | 0.00 | 0.00 | 69 | 323.0 |
| 20260507134519 | 20 | 189 | 0.0 | 0.0 | 0.00 | 0.00 | 0.00 | 70 | 323.1 |
| 20260507134013 | 20 | 116 | 0.0 | 0.0 | 0.00 | 0.00 | 0.00 | 71 | 323.2 |
| 20260507133507 | 20 | 56 | 0.0 | 0.0 | 0.00 | 0.00 | 0.00 | 71 | 323.3 |
| 20260507133001 | 20 | 333 | 0.0 | 0.0 | 0.00 | 0.00 | 0.00 | 72 | 323.4 |
| 20260507132455 | 20 | 306 | 0.0 | 0.0 | 0.00 | 0.00 | 0.00 | 72 | 323.4 |
| 20260507131949 | 20 | 306 | 1.6 | 0.0 | 0.00 | 0.00 | 0.00 | 72 | 323.5 |
| 20260507131443 | 20 | 303 | 0.0 | 0.0 | 0.00 | 0.00 | 0.00 | 73 | 323.5 |
| 20260507130937 | 19 | 299 | 0.0 | 0.0 | 0.00 | 0.00 | 0.00 | 73 | 323.5 |
| 20260507130432 | 19 | 310 | 0.0 | 0.0 | 0.00 | 0.00 | 0.00 | 74 | 323.6 |
| 20260507125925 | 19 | 305 | 0.0 | 0.0 | 0.00 | 0.00 | 0.00 | 73 | 323.6 |
| 20260507125419 | 18 | 265 | 0.0 | 0.0 | 0.00 | 0.00 | 0.00 | 74 | 323.6 |
| 20260507124913 | 18 | 260 | 0.0 | 0.0 | 0.00 | 0.00 | 0.00 | 72 | 323.6 |
| 20260507124407 | 18 | 255 | 0.0 | 0.0 | 0.00 | 0.00 | 0.00 | 73 | 323.5 |
| 20260507123901 | 18 | 325 | 0.0 | 0.0 | 0.00 | 0.00 | 0.00 | 74 | 323.5 |
| 20260507123355 | 18 | 89 | 1.6 | 0.0 | 0.00 | 0.00 | 0.00 | 76 | 323.5 |
| 20260507122849 | 18 | 140 | 1.6 | 0.0 | 0.00 | 0.00 | 0.00 | 77 | 323.6 |
| 20260507122343 | 18 | 103 | 3.2 | 0.0 | 0.00 | 0.00 | 0.00 | 77 | 323.8 |
| 20260507121837 | 18 | 32 | 1.6 | 0.0 | 0.00 | 0.00 | 0.00 | 76 | 323.9 |
| 20260507121331 | 17 | 303 | 0.0 | 0.0 | 0.00 | 0.00 | 0.00 | 77 | 323.9 |
| 20260507120825 | 18 | 243 | 0.0 | 0.0 | 0.00 | 0.00 | 0.00 | 78 | 323.9 |
| 20260507120319 | 17 | 216 | 0.0 | 0.0 | 0.00 | 0.00 | 0.00 | 78 | 324.0 |
| 20260507115813 | 17 | 218 | 0.0 | 0.0 | 0.00 | 0.00 | 0.00 | 76 | 324.0 |
| 20260507115307 | 17 | 211 | 0.0 | 0.0 | 0.00 | 0.00 | 0.00 | 76 | 324.0 |
| 20260507114801 | 17 | 184 | 0.0 | 0.0 | 0.00 | 0.00 | 0.00 | 74 | 324.0 |
| 20260507114255 | 17 | 176 | 1.6 | 0.0 | 0.00 | 0.00 | 0.00 | 73 | 324.0 |
| 20260507113749 | 18 | 171 | 4.8 | 0.0 | 0.00 | 0.00 | 0.00 | 72 | 323.9 |
| 20260507113243 | 18 | 167 | 0.0 | 0.0 | 0.00 | 0.00 | 0.00 | 71 | 323.9 |
| 20260507112737 | 18 | 169 | 0.0 | 0.0 | 0.00 | 0.00 | 0.00 | 71 | 323.8 |
| 20260507112231 | 18 | 170 | 0.0 | 0.0 | 0.00 | 0.00 | 0.00 | 70 | 323.8 |
| 20260507111725 | 19 | 183 | 0.0 | 0.0 | 0.00 | 0.00 | 0.00 | 69 | 323.8 |
| 20260507111219 | 19 | 186 | 0.0 | 0.0 | 0.00 | 0.00 | 0.00 | 68 | 323.7 |
| 20260507110713 | 20 | 184 | 0.0 | 0.0 | 0.00 | 0.00 | 0.00 | 67 | 323.7 |
| 20260507110207 | 20 | 194 | 0.0 | 0.0 | 0.00 | 0.00 | 0.00 | 66 | 323.7 |
| 20260507105701 | 20 | 188 | 0.0 | 0.0 | 0.00 | 0.00 | 0.00 | 63 | 323.7 |
| 20260507105155 | 20 | 197 | 0.0 | 0.0 | 0.00 | 0.00 | 0.00 | 62 | 323.7 |
| 20260507104649 | 20 | 197 | 0.0 | 0.0 | 0.00 | 0.00 | 0.00 | 59 | 323.7 |
| 20260507104143 | 20 | 178 | 1.6 | 0.0 | 0.00 | 0.00 | 0.00 | 58 | 323.6 |
| 20260507103637 | 20 | 192 | 1.6 | 0.0 | 0.00 | 0.00 | 0.00 | 57 | 323.6 |
| 20260507103131 | 20 | 232 | 0.0 | 0.0 | 0.00 | 0.00 | 0.00 | 57 | 323.6 |
| 20260507102625 | 20 | 277 | 0.0 | 0.0 | 0.00 | 0.00 | 0.00 | 56 | 323.6 |
| 20260507102119 | 20 | 304 | 0.0 | 0.0 | 0.00 | 0.00 | 0.00 | 56 | 323.6 |
| 20260507101613 | 20 | 357 | 1.6 | 0.0 | 0.00 | 0.00 | 0.00 | 57 | 323.5 |
| 20260507101107 | 20 | 24 | 1.6 | 0.0 | 0.00 | 0.00 | 0.00 | 57 | 323.5 |
| 20260507100601 | 20 | 0 | 1.6 | 0.0 | 0.00 | 0.00 | 0.00 | 57 | 323.5 |
| 20260507100055 | 21 | 312 | 0.0 | 0.0 | 0.00 | 0.00 | 0.00 | 56 | 323.5 |
| 20260507095549 | 21 | 282 | 1.6 | 0.0 | 0.00 | 0.00 | 0.00 | 56 | 323.4 |
| 20260507095043 | 21 | 305 | 1.6 | 0.0 | 0.00 | 0.00 | 0.00 | 56 | 323.4 |
| 20260507094537 | 21 | 344 | 1.6 | 0.0 | 0.00 | 0.00 | 0.00 | 57 | 323.3 |
| 20260507094031 | 21 | 26 | 3.2 | 0.0 | 0.00 | 0.00 | 0.00 | 58 | 323.3 |
| 20260507093525 | 21 | 358 | 0.0 | 0.0 | 0.00 | 0.00 | 0.00 | 58 | 323.3 |
| 20260507093019 | 21 | 334 | 0.0 | 0.0 | 0.00 | 0.00 | 0.00 | 57 | 323.3 |
| 20260507092513 | 21 | 17 | 0.0 | 0.0 | 0.00 | 0.00 | 0.00 | 56 | 323.3 |
| 20260507092007 | 21 | 48 | 0.0 | 0.0 | 0.00 | 0.00 | 0.00 | 58 | 323.4 |
| 20260507091501 | 21 | 341 | 0.0 | 0.0 | 0.00 | 0.00 | 0.00 | 58 | 323.4 |
| 20260507090955 | 21 | 291 | 0.0 | 0.0 | 0.00 | 0.00 | 0.00 | 55 | 323.5 |
| 20260507090449 | 21 | 291 | 0.0 | 0.0 | 0.00 | 0.00 | 0.00 | 55 | 323.4 |
| 20260507085943 | 21 | 290 | 0.0 | 0.0 | 0.00 | 0.00 | 0.00 | 57 | 323.4 |
| 20260507085437 | 21 | 325 | 0.0 | 0.0 | 0.00 | 0.00 | 0.00 | 57 | 323.4 |
| 20260507084931 | 21 | 358 | 0.0 | 0.0 | 0.00 | 0.00 | 0.00 | 57 | 323.4 |
| 20260507084425 | 21 | 2 | 0.0 | 0.0 | 0.00 | 0.00 | 0.00 | 58 | 323.5 |
| 20260507083919 | 21 | 315 | 0.0 | 0.0 | 0.00 | 0.00 | 0.00 | 57 | 323.5 |
| 20260507083413 | 21 | 302 | 0.0 | 0.0 | 0.00 | 0.00 | 0.00 | 57 | 323.5 |
| 20260507082907 | 21 | 302 | 0.0 | 0.0 | 0.00 | 0.00 | 0.00 | 56 | 323.5 |
| 20260507082401 | 21 | 319 | 0.0 | 0.0 | 0.00 | 0.00 | 0.00 | 55 | 323.5 |
| 20260507081855 | 21 | 20 | 0.0 | 0.0 | 0.00 | 0.00 | 0.00 | 56 | 323.4 |
| 20260507081349 | 21 | 112 | 0.0 | 0.0 | 0.00 | 0.00 | 0.00 | 56 | 323.5 |
| 20260507080843 | 21 | 116 | 1.6 | 0.0 | 0.00 | 0.00 | 0.00 | 55 | 323.5 |
| 20260507080337 | 21 | 78 | 0.0 | 0.0 | 0.00 | 0.00 | 0.00 | 56 | 323.5 |
| 20260507075831 | 21 | 117 | 0.0 | 0.0 | 0.00 | 0.00 | 0.00 | 56 | 323.6 |
| 20260507075325 | 21 | 26 | 1.6 | 0.0 | 0.00 | 0.00 | 0.00 | 54 | 323.6 |
| 20260507074819 | 21 | 314 | 0.0 | 0.0 | 0.00 | 0.00 | 0.00 | 54 | 323.6 |
| 20260507074313 | 21 | 300 | 0.0 | 0.0 | 0.00 | 0.00 | 0.00 | 53 | 323.6 |
| 20260507073807 | 21 | 21 | 0.0 | 0.0 | 0.00 | 0.00 | 0.00 | 53 | 323.6 |
| 20260507073301 | 21 | 45 | 0.0 | 0.0 | 0.00 | 0.00 | 0.00 | 51 | 323.6 |
| 20260507072755 | 21 | 352 | 0.0 | 0.0 | 0.00 | 0.00 | 0.00 | 52 | 323.6 |
| 20260507072249 | 21 | 55 | 1.6 | 0.0 | 0.00 | 0.00 | 0.00 | 53 | 323.6 |
| 20260507071743 | 21 | 177 | 0.0 | 0.0 | 0.00 | 0.00 | 0.00 | 54 | 323.7 |
| 20260507071237 | 21 | 108 | 0.0 | 0.0 | 0.00 | 0.00 | 0.00 | 55 | 323.7 |
| 20260507070731 | 21 | 5 | 0.0 | 0.0 | 0.00 | 0.00 | 0.00 | 54 | 323.8 |
| 20260507070225 | 21 | 338 | 0.0 | 0.0 | 0.00 | 0.00 | 0.00 | 54 | 323.8 |
| 20260507065719 | 21 | 358 | 0.0 | 0.0 | 0.00 | 0.00 | 0.00 | 54 | 323.8 |
| 20260507065213 | 21 | 33 | 0.0 | 0.0 | 0.00 | 0.00 | 0.00 | 53 | 323.8 |
| 20260507064707 | 21 | 40 | 0.0 | 0.0 | 0.00 | 0.00 | 0.00 | 55 | 323.9 |
| 20260507064201 | 21 | 86 | 0.0 | 0.0 | 0.00 | 0.00 | 0.00 | 57 | 323.9 |
| 20260507063655 | 21 | 199 | 0.0 | 0.0 | 0.00 | 0.00 | 0.00 | 58 | 324.0 |
| 20260507063149 | 20 | 155 | 0.0 | 0.0 | 0.00 | 0.00 | 0.00 | 61 | 324.1 |
| 20260507062643 | 20 | 314 | 0.0 | 0.0 | 0.00 | 0.00 | 0.00 | 63 | 324.2 |
| 20260507062137 | 20 | 174 | 0.0 | 0.0 | 0.00 | 0.00 | 0.00 | 63 | 324.3 |
| 20260507061631 | 20 | 288 | 0.0 | 0.0 | 0.00 | 0.00 | 0.00 | 64 | 324.3 |
| 20260507061126 | 20 | 197 | 0.0 | 0.0 | 0.00 | 0.00 | 0.00 | 64 | 324.4 |
| 20260507060619 | 20 | 195 | 0.0 | 0.0 | 0.00 | 0.00 | 0.00 | 65 | 324.5 |
| 20260507060113 | 20 | 161 | 0.0 | 0.0 | 0.00 | 0.00 | 0.00 | 64 | 324.6 |
| 20260507055607 | 19 | 135 | 0.0 | 0.0 | 0.00 | 0.00 | 0.00 | 63 | 324.6 |
| 20260507055101 | 19 | 114 | 0.0 | 0.0 | 0.00 | 0.00 | 0.00 | 62 | 324.7 |
| 20260507054555 | 18 | 94 | 0.0 | 0.0 | 0.00 | 0.00 | 0.00 | 65 | 324.7 |
| 20260507054049 | 18 | 72 | 0.0 | 0.0 | 0.00 | 0.00 | 0.00 | 65 | 324.8 |
| 20260507053543 | 18 | 60 | 0.0 | 0.0 | 0.00 | 0.00 | 0.00 | 66 | 324.9 |
| 20260507053037 | 18 | 44 | 0.0 | 0.0 | 0.00 | 0.00 | 0.00 | 66 | 324.9 |
| 20260507052531 | 17 | 32 | 0.0 | 0.0 | 0.00 | 0.00 | 0.00 | 68 | 325.0 |
| 20260507052025 | 17 | 18 | 0.0 | 0.0 | 0.00 | 0.00 | 0.00 | 70 | 325.1 |
| 20260507051519 | 16 | 1 | 0.0 | 0.0 | 0.00 | 0.00 | 0.00 | 72 | 325.1 |
| 20260507051013 | 16 | 346 | 0.0 | 0.0 | 0.00 | 0.00 | 0.00 | 74 | 325.2 |
| 20260507050507 | 15 | 329 | 0.0 | 0.0 | 0.00 | 0.00 | 0.00 | 75 | 325.2 |
| 20260507050001 | 15 | 309 | 0.0 | 0.0 | 0.00 | 0.00 | 0.00 | 74 | 325.3 |
| 20260507045455 | 15 | 297 | 0.0 | 0.0 | 0.00 | 0.00 | 0.00 | 76 | 325.3 |
| 20260507044949 | 14 | 277 | 0.0 | 0.0 | 0.00 | 0.00 | 0.00 | 76 | 325.3 |
| 20260507044443 | 14 | 252 | 0.0 | 0.0 | 0.00 | 0.00 | 0.00 | 75 | 325.4 |
| 20260507043937 | 14 | 146 | 0.0 | 0.0 | 0.00 | 0.00 | 0.00 | 75 | 325.4 |
| 20260507043432 | 13 | 103 | 0.0 | 0.0 | 0.00 | 0.00 | 0.00 | 74 | 325.5 |
| 20260507042925 | 13 | 98 | 0.0 | 0.0 | 0.00 | 0.00 | 0.00 | 73 | 325.5 |
| 20260507042419 | 13 | 93 | 0.0 | 0.0 | 0.00 | 0.00 | 0.00 | 73 | 325.5 |
| 20260507041913 | 13 | 88 | 0.0 | 0.0 | 0.00 | 0.00 | 0.00 | 73 | 325.5 |
| 20260507041407 | 13 | 87 | 0.0 | 0.0 | 0.00 | 0.00 | 0.00 | 73 | 325.6 |
| 20260507040901 | 13 | 85 | 0.0 | 0.0 | 0.00 | 0.00 | 0.00 | 75 | 325.6 |
| 20260507040355 | 13 | 95 | 0.0 | 0.0 | 0.00 | 0.00 | 0.00 | 78 | 325.6 |
| 20260507035849 | 13 | 96 | 0.0 | 0.0 | 0.00 | 0.00 | 0.00 | 80 | 325.6 |
| 20260507035343 | 13 | 102 | 0.0 | 0.0 | 0.00 | 0.00 | 0.00 | 81 | 325.6 |
| 20260507034837 | 13 | 113 | 0.0 | 0.0 | 0.00 | 0.00 | 0.00 | 82 | 325.6 |
| 20260507034331 | 13 | 110 | 0.0 | 0.0 | 0.00 | 0.00 | 0.00 | 82 | 325.6 |
| 20260507033825 | 13 | 108 | 0.0 | 0.0 | 0.00 | 0.00 | 0.00 | 81 | 325.6 |
| 20260507033319 | 13 | 96 | 0.0 | 0.0 | 0.00 | 0.00 | 0.00 | 81 | 325.6 |
| 20260507032813 | 13 | 94 | 0.0 | 0.0 | 0.00 | 0.00 | 0.00 | 81 | 325.6 |
| 20260507032307 | 13 | 93 | 0.0 | 0.0 | 0.00 | 0.00 | 0.00 | 81 | 325.5 |
| 20260507031801 | 13 | 99 | 0.0 | 0.0 | 0.00 | 0.00 | 0.00 | 81 | 325.5 |
| 20260507031255 | 13 | 94 | 0.0 | 0.0 | 0.00 | 0.00 | 0.00 | 80 | 325.5 |
| 20260507030749 | 13 | 84 | 0.0 | 0.0 | 0.00 | 0.00 | 0.00 | 79 | 325.5 |
| 20260507030243 | 13 | 79 | 0.0 | 0.0 | 0.00 | 0.00 | 0.00 | 78 | 325.5 |
| 20260507025737 | 13 | 80 | 0.0 | 0.0 | 0.00 | 0.00 | 0.00 | 78 | 325.4 |
| 20260507025231 | 13 | 81 | 0.0 | 0.0 | 0.00 | 0.00 | 0.00 | 78 | 325.4 |
| 20260507024725 | 13 | 76 | 0.0 | 0.0 | 0.00 | 0.00 | 0.00 | 77 | 325.5 |
| 20260507024219 | 13 | 76 | 0.0 | 0.0 | 0.00 | 0.00 | 0.00 | 77 | 325.5 |
| 20260507023713 | 13 | 73 | 0.0 | 0.0 | 0.00 | 0.00 | 0.00 | 76 | 325.4 |
| 20260507023207 | 13 | 68 | 0.0 | 0.0 | 0.00 | 0.00 | 0.00 | 74 | 325.4 |
| 20260507022701 | 13 | 65 | 0.0 | 0.0 | 0.00 | 0.00 | 0.00 | 73 | 325.4 |
| 20260507022155 | 14 | 70 | 0.0 | 0.0 | 0.00 | 0.00 | 0.00 | 73 | 325.4 |
| 20260507021649 | 14 | 63 | 0.0 | 0.0 | 0.00 | 0.00 | 0.00 | 72 | 325.4 |
| 20260507021143 | 14 | 64 | 0.0 | 0.0 | 0.00 | 0.00 | 0.00 | 72 | 325.4 |
| 20260507020637 | 14 | 66 | 0.0 | 0.0 | 0.00 | 0.00 | 0.00 | 71 | 325.4 |
| 20260507020131 | 14 | 62 | 0.0 | 0.0 | 0.00 | 0.00 | 0.00 | 72 | 325.4 |
| 20260507015625 | 13 | 63 | 0.0 | 0.0 | 0.00 | 0.00 | 0.00 | 73 | 325.4 |
| 20260507015119 | 13 | 63 | 0.0 | 0.0 | 0.00 | 0.00 | 0.00 | 74 | 325.4 |
| 20260507014613 | 13 | 65 | 0.0 | 0.0 | 0.00 | 0.00 | 0.00 | 74 | 325.5 |
| 20260507014107 | 13 | 60 | 0.0 | 0.0 | 0.00 | 0.00 | 0.00 | 74 | 325.5 |
| 20260507013601 | 13 | 68 | 1.6 | 0.0 | 0.00 | 0.00 | 0.00 | 75 | 325.5 |
| 20260507013055 | 13 | 79 | 0.0 | 0.0 | 0.00 | 0.00 | 0.00 | 77 | 325.5 |
| 20260507012549 | 13 | 64 | 0.0 | 0.0 | 0.00 | 0.00 | 0.00 | 75 | 325.4 |
| 20260507012043 | 13 | 67 | 0.0 | 0.0 | 0.00 | 0.00 | 0.00 | 74 | 325.3 |
| 20260507011537 | 13 | 68 | 0.0 | 0.0 | 0.00 | 0.00 | 0.00 | 73 | 325.2 |
| 20260507010525 | 14 | 65 | 0.0 | 0.0 | 0.00 | 0.00 | 0.00 | 72 | 325.2 |
| 20260507010019 | 14 | 61 | 0.0 | 0.0 | 0.00 | 0.00 | 0.00 | 71 | 325.2 |
| 20260507005513 | 14 | 59 | 0.0 | 0.0 | 0.00 | 0.00 | 0.00 | 69 | 325.1 |
| 20260507005007 | 14 | 61 | 0.0 | 0.0 | 0.00 | 0.00 | 0.00 | 67 | 325.1 |
| 20260507004501 | 14 | 57 | 0.0 | 0.0 | 0.00 | 0.00 | 0.00 | 66 | 325.1 |
| 20260507003955 | 14 | 55 | 0.0 | 0.0 | 0.00 | 0.00 | 0.00 | 67 | 325.1 |
| 20260507003449 | 15 | 59 | 0.0 | 0.0 | 0.00 | 0.00 | 0.00 | 68 | 325.1 |
| 20260507002943 | 15 | 59 | 0.0 | 0.0 | 0.00 | 0.00 | 0.00 | 68 | 325.1 |
| 20260507002437 | 15 | 60 | 0.0 | 0.0 | 0.00 | 0.00 | 0.00 | 67 | 325.1 |
| 20260507001931 | 15 | 55 | 0.0 | 0.0 | 0.00 | 0.00 | 0.00 | 67 | 325.1 |
| 20260507001425 | 15 | 58 | 0.0 | 0.0 | 0.00 | 0.00 | 0.00 | 67 | 325.0 |
| 20260507000919 | 15 | 59 | 0.0 | 0.0 | 0.00 | 0.00 | 0.00 | 66 | 325.0 |
| 20260507000413 | 15 | 56 | 0.0 | 0.0 | 0.00 | 0.00 | 0.00 | 62 | 325.0 |
| 20260506235907 | 16 | 53 | 0.0 | 0.0 | 0.00 | 0.00 | 0.00 | 56 | 324.9 |
| 20260506235401 | 16 | 51 | 0.0 | 0.0 | 0.00 | 0.00 | 0.00 | 54 | 324.9 |
| 20260506234855 | 16 | 51 | 0.0 | 0.0 | 0.00 | 0.00 | 0.00 | 53 | 324.9 |
| 20260506234349 | 16 | 54 | 0.0 | 0.0 | 0.00 | 0.00 | 0.00 | 53 | 324.9 |
| 20260506233843 | 16 | 54 | 0.0 | 0.0 | 0.00 | 0.00 | 0.00 | 53 | 324.8 |
| 20260506233337 | 16 | 52 | 0.0 | 0.0 | 0.00 | 0.00 | 0.00 | 52 | 324.8 |
| 20260506232831 | 16 | 53 | 0.0 | 0.0 | 0.00 | 0.00 | 0.00 | 52 | 324.8 |
| 20260506232325 | 17 | 49 | 0.0 | 0.0 | 0.00 | 0.00 | 0.00 | 52 | 324.8 |
| 20260506231819 | 17 | 56 | 0.0 | 0.0 | 0.00 | 0.00 | 0.00 | 51 | 324.8 |
| 20260506231313 | 17 | 51 | 0.0 | 0.0 | 0.00 | 0.00 | 0.00 | 50 | 324.8 |
| 20260506230807 | 17 | 54 | 0.0 | 0.0 | 0.00 | 0.00 | 0.00 | 50 | 324.7 |
| 20260506230301 | 17 | 51 | 0.0 | 0.0 | 0.00 | 0.00 | 0.00 | 49 | 324.7 |
| 20260506225755 | 17 | 53 | 0.0 | 0.0 | 0.00 | 0.00 | 0.00 | 48 | 324.7 |
| 20260506225249 | 17 | 54 | 0.0 | 0.0 | 0.00 | 0.00 | 0.00 | 48 | 324.7 |
| 20260506224743 | 17 | 54 | 0.0 | 0.0 | 0.00 | 0.00 | 0.00 | 47 | 324.7 |
| 20260506224237 | 17 | 52 | 0.0 | 0.0 | 0.00 | 0.00 | 0.00 | 47 | 324.7 |
| 20260506223731 | 17 | 53 | 0.0 | 0.0 | 0.00 | 0.00 | 0.00 | 47 | 324.8 |
| 20260506223225 | 17 | 51 | 0.0 | 0.0 | 0.00 | 0.00 | 0.00 | 48 | 324.8 |
| 20260506222719 | 17 | 55 | 0.0 | 0.0 | 0.00 | 0.00 | 0.00 | 47 | 324.8 |
| 20260506222213 | 17 | 54 | 0.0 | 0.0 | 0.00 | 0.00 | 0.00 | 47 | 324.9 |
| 20260506221707 | 17 | 53 | 3.2 | 0.0 | 0.00 | 0.00 | 0.00 | 48 | 324.9 |
| 20260506221201 | 17 | 54 | 3.2 | 0.0 | 0.00 | 0.00 | 0.00 | 48 | 324.8 |
| 20260506220655 | 16 | 54 | 0.0 | 0.0 | 0.00 | 0.00 | 0.00 | 49 | 324.9 |
| 20260506220149 | 16 | 52 | 3.2 | 0.0 | 0.00 | 0.00 | 0.00 | 50 | 324.8 |
| 20260506215643 | 16 | 53 | 0.0 | 0.0 | 0.00 | 0.00 | 0.00 | 52 | 324.8 |
| 20260506215137 | 16 | 51 | 1.6 | 0.0 | 0.00 | 0.00 | 0.00 | 52 | 324.8 |
| 20260506214631 | 16 | 54 | 0.0 | 0.0 | 0.00 | 0.00 | 0.00 | 52 | 324.7 |
| 20260506214125 | 16 | 51 | 1.6 | 0.0 | 0.00 | 0.00 | 0.00 | 52 | 324.7 |
| 20260506213619 | 16 | 54 | 0.0 | 0.0 | 0.00 | 0.00 | 0.00 | 52 | 324.6 |
| 20260506213113 | 16 | 52 | 0.0 | 0.0 | 0.00 | 0.00 | 0.00 | 53 | 324.6 |
| 20260506212607 | 16 | 50 | 0.0 | 0.0 | 0.00 | 0.00 | 0.00 | 52 | 324.6 |
| 20260506212101 | 16 | 56 | 0.0 | 0.0 | 0.00 | 0.00 | 0.00 | 52 | 324.7 |
| 20260506211555 | 16 | 53 | 0.0 | 0.0 | 0.00 | 0.00 | 0.00 | 51 | 324.7 |
| 20260506211049 | 16 | 54 | 0.0 | 0.0 | 0.00 | 0.00 | 0.00 | 51 | 324.7 |
| 20260506210543 | 17 | 54 | 3.2 | 0.0 | 0.00 | 0.00 | 0.00 | 49 | 324.6 |
| 20260506210037 | 17 | 57 | 3.2 | 0.0 | 0.00 | 0.00 | 0.00 | 49 | 324.5 |
| 20260506205531 | 17 | 53 | 1.6 | 0.0 | 0.00 | 0.00 | 0.00 | 49 | 324.5 |
| 20260506205025 | 17 | 54 | 0.0 | 0.0 | 0.00 | 0.00 | 0.00 | 51 | 324.5 |
| 20260506204519 | 17 | 54 | 0.0 | 0.0 | 0.00 | 0.00 | 0.00 | 49 | 324.4 |
| 20260506204013 | 17 | 52 | 0.0 | 0.0 | 0.00 | 0.00 | 0.00 | 49 | 324.4 |
| 20260506203507 | 17 | 55 | 0.0 | 0.0 | 0.00 | 0.00 | 0.00 | 48 | 324.4 |
| 20260506203001 | 17 | 53 | 0.0 | 0.0 | 0.00 | 0.00 | 0.00 | 48 | 324.4 |
| 20260506202455 | 17 | 49 | 0.0 | 0.0 | 0.00 | 0.00 | 0.00 | 47 | 324.4 |
| 20260506201949 | 17 | 52 | 0.0 | 0.0 | 0.00 | 0.00 | 0.00 | 46 | 324.4 |
| 20260506201443 | 17 | 53 | 0.0 | 0.0 | 0.00 | 0.00 | 0.00 | 46 | 324.4 |
| 20260506200937 | 17 | 54 | 0.0 | 0.0 | 0.00 | 0.00 | 0.00 | 45 | 324.4 |
| 20260506200431 | 17 | 56 | 0.0 | 0.0 | 0.00 | 0.00 | 0.00 | 45 | 324.4 |
| 20260506195925 | 17 | 55 | 0.0 | 0.0 | 0.00 | 0.00 | 0.00 | 45 | 324.4 |
| 20260506195419 | 17 | 50 | 0.0 | 0.0 | 0.00 | 0.00 | 0.00 | 45 | 324.4 |
| 20260506194913 | 18 | 57 | 0.0 | 0.0 | 0.00 | 0.00 | 0.00 | 45 | 324.3 |
| 20260506194407 | 18 | 53 | 0.0 | 0.0 | 0.00 | 0.00 | 0.00 | 46 | 324.3 |
| 20260506193901 | 18 | 55 | 0.0 | 0.0 | 0.00 | 0.00 | 0.00 | 46 | 324.3 |
| 20260506193355 | 17 | 56 | 0.0 | 0.0 | 0.00 | 0.00 | 0.00 | 45 | 324.3 |
| 20260506192849 | 18 | 51 | 0.0 | 0.0 | 0.00 | 0.00 | 0.00 | 46 | 324.3 |
| 20260506192343 | 18 | 55 | 0.0 | 0.0 | 0.00 | 0.00 | 0.00 | 44 | 324.3 |
| 20260506191837 | 18 | 57 | 0.0 | 0.0 | 0.00 | 0.00 | 0.00 | 45 | 324.3 |
| 20260506191331 | 18 | 53 | 0.0 | 0.0 | 0.00 | 0.00 | 0.00 | 44 | 324.3 |
| 20260506190825 | 18 | 55 | 0.0 | 0.0 | 0.00 | 0.00 | 0.00 | 43 | 324.2 |
| 20260506190319 | 18 | 52 | 0.0 | 0.0 | 0.00 | 0.00 | 0.00 | 43 | 324.2 |
| 20260506185813 | 18 | 54 | 0.0 | 0.0 | 0.00 | 0.00 | 0.00 | 43 | 324.1 |
| 20260506185307 | 18 | 56 | 0.0 | 0.0 | 0.00 | 0.00 | 0.00 | 44 | 324.1 |
| 20260506184801 | 18 | 53 | 0.0 | 0.0 | 0.00 | 0.00 | 0.00 | 42 | 324.1 |
| 20260506184255 | 18 | 54 | 0.0 | 0.0 | 0.00 | 0.00 | 0.00 | 41 | 324.0 |
| 20260506183749 | 19 | 54 | 0.0 | 0.0 | 0.00 | 0.00 | 0.00 | 42 | 324.1 |
| 20260506183243 | 18 | 53 | 0.0 | 0.0 | 0.00 | 0.00 | 0.00 | 42 | 324.1 |
| 20260506182737 | 18 | 56 | 0.0 | 0.0 | 0.00 | 0.00 | 0.00 | 42 | 324.1 |
| 20260506182231 | 18 | 57 | 0.0 | 0.0 | 0.00 | 0.00 | 0.00 | 43 | 324.1 |
| 20260506181725 | 18 | 55 | 0.0 | 0.0 | 0.00 | 0.00 | 0.00 | 44 | 324.1 |
| 20260506181219 | 18 | 54 | 1.6 | 0.0 | 0.00 | 0.00 | 0.00 | 46 | 324.1 |
| 20260506180713 | 18 | 57 | 1.6 | 0.0 | 0.00 | 0.00 | 0.00 | 48 | 324.0 |
| 20260506180207 | 18 | 55 | 3.2 | 0.0 | 0.00 | 0.00 | 0.00 | 49 | 324.0 |
| 20260506175701 | 18 | 57 | 3.2 | 0.0 | 0.00 | 0.00 | 0.00 | 50 | 323.9 |
| 20260506175155 | 18 | 59 | 0.0 | 0.0 | 0.00 | 0.00 | 0.00 | 51 | 323.8 |
| 20260506174649 | 18 | 60 | 4.8 | 0.0 | 0.00 | 0.00 | 0.00 | 52 | 323.6 |
| 20260506174143 | 19 | 60 | 3.2 | 0.0 | 0.00 | 0.00 | 0.00 | 52 | 323.4 |
| 20260506173637 | 20 | 64 | 0.0 | 0.0 | 0.00 | 0.00 | 0.00 | 53 | 323.3 |
| 20260506173131 | 20 | 68 | 0.0 | 0.0 | 0.00 | 0.00 | 0.00 | 52 | 323.1 |
| 20260506172625 | 20 | 67 | 0.0 | 0.0 | 0.00 | 0.00 | 0.00 | 51 | 322.9 |